Time,TemperatureF,DewpointF,PressureIn,WindDirection,WindDirectionDegrees,WindSpeedMPH,WindSpeedGustMPH,Humidity,HourlyPrecipIn,Conditions,Clouds,dailyrainin,SoftwareType,DateUTC
2013-05-21 00:09:00,73.2,66.0,29.79,SW,229,0.0,0.0,77,0.00,,,0.00,weatherlink.com 1.10,2013-05-21 04:09:00,
2013-05-21 00:24:00,72.8,66.0,29.79,South,178,1.0,2.0,78,0.00,,,0.00,weatherlink.com 1.10,2013-05-21 04:24:00,
2013-05-21 00:39:00,72.4,66.0,29.77,SSW,198,0.0,3.0,79,0.00,,,0.00,weatherlink.com 1.10,2013-05-21 04:39:00,
2013-05-21 00:54:00,72.4,66.0,29.77,South,185,0.0,2.0,79,0.00,,,0.00,weatherlink.com 1.10,2013-05-21 04:54:00,
2013-05-21 01:09:00,72.4,66.0,29.78,SW,232,0.0,2.0,80,0.00,,,0.00,weatherlink.com 1.10,2013-05-21 05:09:00,
2013-05-21 01:24:00,72.7,66.0,29.79,WSW,248,0.0,3.0,79,0.00,,,0.00,weatherlink.com 1.10,2013-05-21 05:24:00,
2013-05-21 01:39:00,72.7,66.0,29.79,NW,309,0.0,3.0,80,0.00,,,0.00,weatherlink.com 1.10,2013-05-21 05:39:00,
2013-05-21 01:54:00,72.8,66.0,29.79,South,186,0.0,3.0,80,0.00,,,0.00,weatherlink.com 1.10,2013-05-21 05:54:00,
2013-05-21 02:09:00,72.9,67.0,29.78,SW,232,0.0,3.0,81,0.00,,,0.00,weatherlink.com 1.10,2013-05-21 06:09:00,
2013-05-21 02:24:00,73.0,67.0,29.77,SW,218,0.0,2.0,81,0.00,,,0.00,weatherlink.com 1.10,2013-05-21 06:24:00,
2013-05-21 02:39:00,72.9,67.0,29.76,WSW,238,0.0,3.0,81,0.00,,,0.00,weatherlink.com 1.10,2013-05-21 06:39:00,
2013-05-21 02:54:00,73.0,67.0,29.75,SSW,209,1.0,3.0,82,0.00,,,0.00,weatherlink.com 1.10,2013-05-21 06:54:00,
2013-05-21 03:09:00,72.1,68.0,29.74,SW,233,0.0,2.0,86,0.00,,,0.00,weatherlink.com 1.10,2013-05-21 07:09:00,
2013-05-21 03:24:00,71.1,67.0,29.74,South,184,0.0,2.0,88,0.00,,,0.00,weatherlink.com 1.10,2013-05-21 07:24:00,
2013-05-21 03:39:00,71.1,67.0,29.74,SSW,205,0.0,3.0,88,0.00,,,0.00,weatherlink.com 1.10,2013-05-21 07:39:00,
2013-05-21 03:54:00,71.2,67.0,29.74,SW,222,1.0,2.0,87,0.00,,,0.00,weatherlink.com 1.10,2013-05-21 07:54:00,
2013-05-21 04:09:00,71.4,67.0,29.73,West,272,0.0,4.0,87,0.00,,,0.00,weatherlink.com 1.10,2013-05-21 08:09:00,
2013-05-21 04:24:00,71.4,67.0,29.74,SW,231,0.0,1.0,87,0.00,,,0.00,weatherlink.com 1.10,2013-05-21 08:24:00,
2013-05-21 04:39:00,71.6,68.0,29.76,NNE,33,0.0,4.0,87,0.00,,,0.00,weatherlink.com 1.10,2013-05-21 08:39:00,
2013-05-21 04:54:00,71.3,65.0,29.76,WSW,257,3.0,14.0,79,0.00,,,0.00,weatherlink.com 1.10,2013-05-21 08:54:00,
2013-05-21 05:09:00,68.9,64.0,29.75,WSW,250,0.0,7.0,85,0.01,,,0.01,weatherlink.com 1.10,2013-05-21 09:09:00,
2013-05-21 05:24:00,67.3,64.0,29.75,ESE,122,1.0,2.0,89,0.01,,,0.01,weatherlink.com 1.10,2013-05-21 09:24:00,
2013-05-21 05:39:00,66.4,64.0,29.76,SW,229,0.0,1.0,90,0.01,,,0.01,weatherlink.com 1.10,2013-05-21 09:39:00,
2013-05-21 05:54:00,65.9,63.0,29.75,East,101,0.0,1.0,91,0.01,,,0.01,weatherlink.com 1.10,2013-05-21 09:54:00,
2013-05-21 06:10:00,65.4,63.0,29.73,WNW,287,0.0,0.0,91,0.00,,,0.01,weatherlink.com 1.10,2013-05-21 10:10:00,
2013-05-21 06:25:00,64.9,62.0,29.72,WNW,287,0.0,0.0,91,0.00,,,0.01,weatherlink.com 1.10,2013-05-21 10:25:00,
2013-05-21 06:40:00,64.2,62.0,29.74,WNW,288,0.0,0.0,93,0.00,,,0.01,weatherlink.com 1.10,2013-05-21 10:40:00,
2013-05-21 06:55:00,64.1,62.0,29.75,WNW,288,0.0,0.0,94,0.00,,,0.01,weatherlink.com 1.10,2013-05-21 10:55:00,
2013-05-21 07:10:00,64.3,62.0,29.77,WNW,288,0.0,1.0,93,0.00,,,0.01,weatherlink.com 1.10,2013-05-21 11:10:00,
2013-05-21 07:25:00,64.7,63.0,29.76,WSW,238,0.0,2.0,93,0.00,,,0.01,weatherlink.com 1.10,2013-05-21 11:25:00,
2013-05-21 07:40:00,65.1,63.0,29.77,South,169,0.0,4.0,93,0.00,,,0.01,weatherlink.com 1.10,2013-05-21 11:40:00,
2013-05-21 07:55:00,65.4,63.0,29.77,SW,235,1.0,3.0,92,0.00,,,0.01,weatherlink.com 1.10,2013-05-21 11:55:00,
2013-05-21 08:10:00,65.9,63.0,29.78,SW,214,0.0,3.0,91,0.00,,,0.01,weatherlink.com 1.10,2013-05-21 12:10:00,
2013-05-21 08:25:00,66.5,63.0,29.78,ESE,103,0.0,3.0,88,0.00,,,0.01,weatherlink.com 1.10,2013-05-21 12:25:00,
2013-05-21 08:40:00,67.3,63.0,29.78,SW,223,1.0,3.0,85,0.00,,,0.01,weatherlink.com 1.10,2013-05-21 12:40:00,
2013-05-21 08:55:00,68.1,62.0,29.79,SW,232,1.0,7.0,82,0.00,,,0.01,weatherlink.com 1.10,2013-05-21 12:55:00,
2013-05-21 09:10:00,67.9,62.0,29.78,WNW,298,1.0,6.0,82,0.00,,,0.01,weatherlink.com 1.10,2013-05-21 13:10:00,
2013-05-21 09:25:00,67.3,62.0,29.76,West,267,1.0,2.0,84,0.00,,,0.01,weatherlink.com 1.10,2013-05-21 13:25:00,
2013-05-21 09:40:00,67.1,63.0,29.78,WSW,252,2.0,4.0,85,0.00,,,0.01,weatherlink.com 1.10,2013-05-21 13:40:00,
2013-05-21 09:55:00,66.8,62.0,29.78,SSE,152,1.0,5.0,85,0.00,,,0.01,weatherlink.com 1.10,2013-05-21 13:55:00,
2013-05-21 10:10:00,66.5,63.0,29.78,West,273,2.0,7.0,87,0.00,,,0.01,weatherlink.com 1.10,2013-05-21 14:10:00,
2013-05-21 10:25:00,67.1,64.0,29.77,West,269,0.0,6.0,88,0.00,,,0.01,weatherlink.com 1.10,2013-05-21 14:25:00,
2013-05-21 10:40:00,68.0,64.0,29.77,South,171,5.0,5.0,86,0.00,,,0.01,weatherlink.com 1.10,2013-05-21 14:40:00,
2013-05-21 10:55:00,69.3,64.0,29.76,WNW,298,0.0,6.0,84,0.00,,,0.01,weatherlink.com 1.10,2013-05-21 14:55:00,
2013-05-21 11:10:00,71.3,65.0,29.77,SW,234,0.0,5.0,80,0.00,,,0.01,weatherlink.com 1.10,2013-05-21 15:10:00,
2013-05-21 11:25:00,72.5,65.0,29.77,SW,215,2.0,7.0,78,0.00,,,0.01,weatherlink.com 1.10,2013-05-21 15:25:00,
2013-05-21 11:40:00,73.1,65.0,29.77,ESE,109,0.0,4.0,75,0.00,,,0.01,weatherlink.com 1.10,2013-05-21 15:40:00,
2013-05-21 11:55:00,73.3,65.0,29.77,WSW,246,0.0,4.0,76,0.00,,,0.01,weatherlink.com 1.10,2013-05-21 15:55:00,
2013-05-21 12:10:00,73.0,64.0,29.77,West,261,0.0,4.0,74,0.00,,,0.01,weatherlink.com 1.10,2013-05-21 16:10:00,
2013-05-21 12:25:00,73.4,65.0,29.76,WSW,250,0.0,4.0,74,0.00,,,0.01,weatherlink.com 1.10,2013-05-21 16:25:00,
2013-05-21 12:40:00,74.7,65.0,29.76,SW,236,1.0,4.0,72,0.00,,,0.01,weatherlink.com 1.10,2013-05-21 16:40:00,
2013-05-21 12:55:00,77.5,66.0,29.76,SW,236,4.0,12.0,67,0.00,,,0.01,weatherlink.com 1.10,2013-05-21 16:55:00,
2013-05-21 13:11:00,78.9,66.0,29.75,SW,219,4.0,6.0,64,0.00,,,0.01,weatherlink.com 1.10,2013-05-21 17:11:00,
2013-05-21 13:26:00,79.8,64.0,29.74,West,271,2.0,4.0,59,0.00,,,0.01,weatherlink.com 1.10,2013-05-21 17:26:00,
2013-05-21 13:41:00,80.6,65.0,29.73,NNW,347,3.0,5.0,60,0.00,,,0.01,weatherlink.com 1.10,2013-05-21 17:41:00,
2013-05-21 13:56:00,82.3,65.0,29.73,West,267,0.0,4.0,56,0.00,,,0.01,weatherlink.com 1.10,2013-05-21 17:56:00,
2013-05-21 14:11:00,82.7,64.0,29.72,SW,215,2.0,5.0,54,0.00,,,0.01,weatherlink.com 1.10,2013-05-21 18:11:00,
2013-05-21 14:26:00,83.2,65.0,29.72,WSW,240,2.0,8.0,54,0.00,,,0.01,weatherlink.com 1.10,2013-05-21 18:26:00,
2013-05-21 14:41:00,83.2,64.0,29.72,NW,313,6.0,7.0,53,0.00,,,0.01,weatherlink.com 1.10,2013-05-21 18:41:00,
2013-05-21 14:56:00,83.4,64.0,29.73,NNE,33,0.0,7.0,52,0.00,,,0.01,weatherlink.com 1.10,2013-05-21 18:56:00,
2013-05-21 15:11:00,83.5,64.0,29.72,SW,232,1.0,9.0,52,0.00,,,0.01,weatherlink.com 1.10,2013-05-21 19:11:00,
2013-05-21 15:26:00,84.2,64.0,29.72,SW,218,2.0,7.0,50,0.00,,,0.01,weatherlink.com 1.10,2013-05-21 19:26:00,
2013-05-21 15:41:00,84.8,64.0,29.72,WSW,244,2.0,7.0,50,0.00,,,0.01,weatherlink.com 1.10,2013-05-21 19:41:00,
2013-05-21 15:56:00,84.7,64.0,29.72,WSW,238,4.0,7.0,50,0.00,,,0.01,weatherlink.com 1.10,2013-05-21 19:56:00,
2013-05-21 16:11:00,85.0,65.0,29.72,SW,223,3.0,6.0,52,0.00,,,0.01,weatherlink.com 1.10,2013-05-21 20:11:00,
2013-05-21 16:26:00,85.4,65.0,29.71,SW,236,2.0,7.0,50,0.00,,,0.01,weatherlink.com 1.10,2013-05-21 20:26:00,
2013-05-21 16:41:00,84.8,66.0,29.71,SW,214,3.0,6.0,54,0.00,,,0.01,weatherlink.com 1.10,2013-05-21 20:41:00,
2013-05-21 16:56:00,85.7,64.0,29.70,SSE,166,1.0,5.0,49,0.00,,,0.01,weatherlink.com 1.10,2013-05-21 20:56:00,
2013-05-21 17:11:00,83.3,64.0,29.71,SW,218,3.0,5.0,53,0.00,,,0.01,weatherlink.com 1.10,2013-05-21 21:11:00,
2013-05-21 17:26:00,82.7,65.0,29.70,WSW,237,3.0,7.0,55,0.00,,,0.01,weatherlink.com 1.10,2013-05-21 21:26:00,
2013-05-21 17:56:00,81.3,62.0,29.70,WSW,257,1.0,6.0,52,0.00,,,0.01,weatherlink.com 1.10,2013-05-21 21:56:00,
2013-05-21 18:11:00,80.4,64.0,29.70,SW,217,0.0,4.0,57,0.00,,,0.01,weatherlink.com 1.10,2013-05-21 22:11:00,
2013-05-21 18:26:00,79.8,62.0,29.70,WSW,248,1.0,3.0,55,0.00,,,0.01,weatherlink.com 1.10,2013-05-21 22:26:00,
2013-05-21 18:41:00,79.9,63.0,29.69,SSW,209,1.0,6.0,57,0.00,,,0.01,weatherlink.com 1.10,2013-05-21 22:41:00,
2013-05-21 18:56:00,80.3,64.0,29.69,SE,129,0.0,3.0,58,0.00,,,0.01,weatherlink.com 1.10,2013-05-21 22:56:00,
2013-05-21 19:11:00,80.1,62.0,29.68,SW,215,0.0,3.0,54,0.00,,,0.01,weatherlink.com 1.10,2013-05-21 23:11:00,
2013-05-21 19:26:00,80.1,62.0,29.69,East,96,2.0,3.0,54,0.00,,,0.01,weatherlink.com 1.10,2013-05-21 23:26:00,
2013-05-21 19:41:00,79.8,62.0,29.69,South,182,0.0,1.0,55,0.00,,,0.01,weatherlink.com 1.10,2013-05-21 23:41:00,
2013-05-21 19:56:00,79.3,63.0,29.69,SW,227,4.0,6.0,58,0.00,,,0.01,weatherlink.com 1.10,2013-05-21 23:56:00,
2013-05-21 20:11:00,79.1,63.0,29.69,SE,138,5.0,5.0,58,0.00,,,0.01,weatherlink.com 1.10,2013-05-22 00:11:00,
2013-05-21 20:26:00,78.9,64.0,29.68,SSE,162,0.0,3.0,60,0.00,,,0.01,weatherlink.com 1.10,2013-05-22 00:26:00,
2013-05-21 20:41:00,78.2,64.0,29.68,SSE,159,0.0,2.0,61,0.00,,,0.01,weatherlink.com 1.10,2013-05-22 00:41:00,
2013-05-21 20:56:00,77.5,63.0,29.69,SW,216,0.0,3.0,61,0.00,,,0.01,weatherlink.com 1.10,2013-05-22 00:56:00,
2013-05-21 21:11:00,77.1,63.0,29.69,SW,219,0.0,3.0,62,0.00,,,0.01,weatherlink.com 1.10,2013-05-22 01:11:00,
2013-05-21 21:26:00,76.6,63.0,29.70,SW,225,0.0,1.0,63,0.00,,,0.01,weatherlink.com 1.10,2013-05-22 01:26:00,
2013-05-21 21:41:00,76.0,63.0,29.70,SSW,206,0.0,2.0,65,0.00,,,0.01,weatherlink.com 1.10,2013-05-22 01:41:00,
2013-05-21 21:56:00,75.6,63.0,29.71,SSW,206,0.0,1.0,66,0.00,,,0.01,weatherlink.com 1.10,2013-05-22 01:56:00,
2013-05-21 22:11:00,74.9,63.0,29.71,SSW,206,0.0,0.0,67,0.00,,,0.01,weatherlink.com 1.10,2013-05-22 02:11:00,
2013-05-21 22:26:00,74.6,63.0,29.72,SSW,203,0.0,1.0,68,0.00,,,0.01,weatherlink.com 1.10,2013-05-22 02:26:00,
2013-05-21 22:41:00,74.4,64.0,29.73,SSW,196,0.0,2.0,69,0.00,,,0.01,weatherlink.com 1.10,2013-05-22 02:41:00,
2013-05-21 22:56:00,73.9,63.0,29.73,ENE,57,0.0,3.0,69,0.00,,,0.01,weatherlink.com 1.10,2013-05-22 02:56:00,
2013-05-21 23:11:00,73.4,63.0,29.73,South,169,0.0,0.0,70,0.00,,,0.01,weatherlink.com 1.10,2013-05-22 03:11:00,
2013-05-21 23:26:00,73.0,63.0,29.73,South,170,0.0,1.0,71,0.00,,,0.01,weatherlink.com 1.10,2013-05-22 03:26:00,
2013-05-21 23:41:00,72.8,63.0,29.73,South,174,0.0,1.0,72,0.00,,,0.01,weatherlink.com 1.10,2013-05-22 03:41:00,
2013-05-21 23:56:00,72.4,63.0,29.73,South,173,0.0,0.0,72,0.00,,,0.01,weatherlink.com 1.10,2013-05-22 03:56:00,